W4ZHA Weather Reports


time (UTC)temp
C
wind
direction
speed
KPH
gust
KPH
rain 1hr
cm
rain 24hr
cm
rain mn
cm
humidity
%
barometer
mb
20260506044401 21 232 0.0 0.0 0.00 0.00 0.00 62 1011.6
20260506043857 22 200 0.0 0.0 0.00 0.00 0.00 61 1011.6
20260506043354 21 237 0.0 0.0 0.00 0.00 0.00 62 1011.6
20260506042853 22 218 0.0 0.0 0.00 0.00 0.00 61 1011.3
20260506042351 22 227 0.0 0.0 0.00 0.00 0.00 61 1011.6
20260506041850 22 222 0.0 0.0 0.00 0.00 0.00 60 1012.0
20260506041346 22 233 0.0 0.0 0.00 0.00 0.00 60 1011.6
20260506040843 22 273 0.0 0.0 0.00 0.00 0.00 60 1011.6
20260506040341 22 262 0.0 0.0 0.00 0.00 0.00 60 1012.0
20260506035837 22 234 0.0 0.0 0.00 0.00 0.00 59 1011.6
20260506035335 22 211 0.0 0.0 0.00 0.00 0.00 59 1011.6
20260506034831 22 265 0.0 0.0 0.00 0.00 0.00 59 1011.6
20260506034329 22 226 0.0 0.0 0.00 0.00 0.00 59 1011.6
20260506033826 22 229 0.0 0.0 0.00 0.00 0.00 59 1011.6
20260506033323 22 219 0.0 0.0 0.00 0.00 0.00 63 1011.6
20260506032819 22 227 0.0 0.0 0.00 0.00 0.00 59 1012.3
20260506032316 22 228 0.0 0.0 0.00 0.00 0.00 59 1012.0
20260506031813 22 264 0.0 0.0 0.00 0.00 0.00 59 1012.0
20260506031311 22 250 0.0 0.0 0.00 0.00 0.00 59 1012.0
20260506030808 22 267 0.0 0.0 0.00 0.00 0.00 59 1012.0
20260506030306 22 228 0.0 0.0 0.00 0.00 0.00 58 1011.6
20260506025802 22 252 0.0 0.0 0.00 0.00 0.00 58 1012.0
20260506025259 22 245 0.0 0.0 0.00 0.00 0.00 58 1012.0
20260506024756 22 237 0.0 0.0 0.00 0.00 0.00 58 1012.3
20260506024253 22 210 0.0 0.0 0.00 0.00 0.00 58 1012.3
20260506023749 22 228 0.0 0.0 0.00 0.00 0.00 57 1012.0
20260506023246 22 163 0.0 0.0 0.00 0.00 0.00 57 1012.0
20260506022742 22 280 0.0 0.0 0.00 0.00 0.00 57 1011.6
20260506022241 22 262 0.0 0.0 0.00 0.00 0.00 57 1011.6
20260506021739 22 91 0.0 0.0 0.00 0.00 0.00 58 1011.6
20260506021235 22 281 0.0 0.0 0.00 0.00 0.00 57 1011.6
20260506020732 22 243 0.0 0.0 0.00 0.00 0.00 57 1011.6
20260506020230 22 282 0.0 0.0 0.00 0.00 0.00 57 1011.6
20260506015727 22 290 0.0 0.0 0.00 0.00 0.00 58 1011.6
20260506015225 22 251 0.0 0.0 0.00 0.00 0.00 57 1011.6
20260506014721 22 245 0.0 0.0 0.00 0.00 0.00 58 1011.6
20260506014217 22 235 0.0 0.0 0.00 0.00 0.00 58 1011.6
20260506013715 22 203 0.0 0.0 0.00 0.00 0.00 57 1011.6
20260506013212 22 234 0.0 0.0 0.00 0.00 0.00 58 1011.3
20260506012708 22 140 0.0 0.0 0.00 0.00 0.00 57 1011.3
20260506012205 22 199 0.0 0.0 0.00 0.00 0.00 57 1011.3
20260506011703 22 237 0.0 0.0 0.00 0.00 0.00 57 1011.0
20260506011158 22 223 0.0 0.0 0.00 0.00 0.00 57 1011.0
20260506010657 22 210 0.0 0.0 0.00 0.00 0.00 57 1011.0
20260506010154 22 228 0.0 0.0 0.00 0.00 0.00 57 1011.0
20260506005651 22 234 0.0 0.0 0.00 0.00 0.00 57 1011.0
20260506005148 22 236 0.0 0.0 0.00 0.00 0.00 57 1011.0
20260506004644 22 243 0.0 0.0 0.00 0.00 0.00 57 1011.0
20260506004141 22 248 0.0 0.0 0.00 0.00 0.00 56 1011.0
20260506003637 22 245 0.0 0.0 0.00 0.00 0.00 57 1011.0
20260506003134 22 206 0.0 0.0 0.00 0.00 0.00 56 1011.0
20260506002630 22 230 0.0 0.0 0.00 0.00 0.00 56 1011.3
20260506002126 22 227 0.0 0.0 0.00 0.00 0.00 56 1011.0
20260506001622 21 211 0.0 0.0 0.00 0.00 0.00 60 1011.3
20260506001119 21 236 0.0 0.0 0.00 0.00 0.00 58 1011.3
20260506000617 21 237 0.0 0.0 0.00 0.00 0.00 60 1011.3
20260506000114 21 231 0.0 0.0 0.00 0.00 0.00 59 1011.3
20260505235612 21 236 0.0 0.0 0.00 0.00 0.00 63 1011.3
20260505235109 22 263 0.0 0.0 0.00 0.00 0.00 60 1011.3
20260505234606 22 234 0.0 0.0 0.00 0.00 0.00 57 1011.3
20260505234102 22 218 0.0 0.0 0.00 0.00 0.00 56 1011.3
20260505233600 22 231 0.0 0.0 0.00 0.00 0.00 56 1011.6
20260505233057 22 251 0.0 0.0 0.00 0.00 0.00 57 1011.3
20260505232555 23 288 0.0 0.0 0.00 0.00 0.00 57 1011.6
20260505232052 23 265 0.0 0.0 0.00 0.00 0.00 57 1011.6
20260505231549 23 290 0.0 0.0 0.00 0.00 0.00 57 1011.6
20260505231048 22 290 0.0 0.0 0.00 0.00 0.00 57 1011.6
20260505230545 22 223 0.0 0.0 0.00 0.00 0.00 57 1011.6
20260505230041 22 226 0.0 0.0 0.00 0.00 0.00 57 1011.3
20260505225538 22 232 0.0 0.0 0.00 0.00 0.00 55 1011.3
20260505225034 22 250 0.0 0.0 0.00 0.00 0.00 54 1011.0
20260505224531 22 225 0.0 0.0 0.00 0.00 0.00 55 1011.0
20260505224028 22 166 0.0 0.0 0.00 0.00 0.00 56 1011.3
20260505223525 22 233 0.0 0.0 0.00 0.00 0.00 55 1011.3
20260505223021 22 234 0.0 0.0 0.00 0.00 0.00 54 1011.3
20260505222518 22 232 0.0 0.0 0.00 0.00 0.00 55 1011.3
20260505222014 22 231 0.0 0.0 0.00 0.00 0.00 55 1011.3
20260505221512 23 209 0.0 0.0 0.00 0.00 0.00 54 1011.3
20260505221008 23 258 0.0 0.0 0.00 0.00 0.00 54 1011.3
20260505220505 23 235 0.0 0.0 0.00 0.00 0.00 53 1011.6
20260505220003 23 209 0.0 0.0 0.00 0.00 0.00 52 1011.6
20260505215501 23 293 0.0 3.2 0.00 0.00 0.00 52 1011.6
20260505214958 23 244 0.0 0.0 0.00 0.00 0.00 53 1011.6
20260505214456 23 264 0.0 0.0 0.00 0.00 0.00 52 1011.6
20260505213953 23 209 0.0 0.0 0.00 0.00 0.00 52 1011.3
20260505213451 23 105 0.0 3.2 0.00 0.00 0.00 52 1011.6
20260505212947 23 140 0.0 0.0 0.00 0.00 0.00 53 1011.6
20260505212443 22 51 0.0 0.0 0.00 0.00 0.00 53 1011.6
20260505211940 23 164 0.0 8.0 0.00 0.00 0.00 49 1011.6
20260505211438 23 231 0.0 0.0 0.00 0.00 0.00 48 1011.6
20260505210934 23 192 0.0 0.0 0.00 0.00 0.00 47 1012.0
20260505210431 23 250 0.0 0.0 0.00 0.00 0.00 46 1012.0
20260505205927 24 251 0.0 3.2 0.00 0.00 0.00 46 1012.0
20260505205426 24 48 0.0 0.0 0.00 0.00 0.00 46 1012.0
20260505204923 24 231 0.0 3.2 0.00 0.00 0.00 46 1012.0
20260505204420 24 212 0.0 3.2 0.00 0.00 0.00 46 1012.0
20260505203918 25 233 0.0 8.0 0.00 0.00 0.00 46 1012.0
20260505203414 25 222 0.0 0.0 0.00 0.00 0.00 45 1012.0
20260505202910 25 228 0.0 0.0 0.00 0.00 0.00 45 1012.0
20260505202406 25 219 0.0 8.0 0.00 0.00 0.00 45 1012.3
20260505201903 25 198 0.0 8.0 0.00 0.00 0.00 45 1012.3
20260505201400 25 131 0.0 16.1 0.00 0.00 0.00 45 1012.3
20260505200858 25 208 0.0 16.1 0.00 0.00 0.00 45 1012.7
20260505200355 25 299 0.0 0.0 0.00 0.00 0.00 45 1012.3
20260505195851 26 212 0.0 24.1 0.00 0.00 0.00 45 1012.3
20260505195348 26 198 0.0 3.2 0.00 0.00 0.00 45 1012.7
20260505194845 26 171 6.4 20.9 0.00 0.00 0.00 45 1012.7
20260505194343 25 258 0.0 8.0 0.00 0.00 0.00 45 1012.7
20260505193838 25 129 0.0 12.9 0.00 0.00 0.00 45 1012.7
20260505193336 26 216 0.0 3.2 0.00 0.00 0.00 45 1013.0
20260505192833 26 212 0.0 8.0 0.00 0.00 0.00 45 1012.7
20260505192332 25 147 0.0 8.0 0.00 0.00 0.00 45 1013.0
20260505191829 25 215 0.0 8.0 0.00 0.00 0.00 45 1012.7
20260505191327 25 197 0.0 3.2 0.00 0.00 0.00 45 1013.4
20260505190823 25 251 1.6 16.1 0.00 0.00 0.00 45 1013.0
20260505190319 25 276 0.0 8.0 0.00 0.00 0.00 45 1013.0
20260505185815 25 198 0.0 3.2 0.00 0.00 0.00 45 1013.4
20260505185312 25 209 0.0 3.2 0.00 0.00 0.00 45 1013.0
20260505184808 25 326 0.0 3.2 0.00 0.00 0.00 45 1013.0
20260505184305 25 291 0.0 0.0 0.00 0.00 0.00 45 1013.0
20260505183802 25 274 0.0 8.0 0.00 0.00 0.00 45 1013.4
20260505183259 25 230 0.0 16.1 0.00 0.00 0.00 45 1013.4
20260505182756 25 143 8.0 8.0 0.00 0.00 0.00 45 1013.4
20260505182252 25 225 0.0 8.0 0.00 0.00 0.00 45 1013.8
20260505181749 25 271 0.0 0.0 0.00 0.00 0.00 45 1013.8
20260505181246 25 227 0.0 12.9 0.00 0.00 0.00 46 1013.8
20260505180743 25 151 0.0 3.2 0.00 0.00 0.00 45 1013.8
20260505180239 25 249 0.0 3.2 0.00 0.00 0.00 45 1013.8
20260505175736 25 125 0.0 0.0 0.00 0.00 0.00 45 1013.8
20260505175232 25 156 3.2 16.1 0.00 0.00 0.00 46 1014.1
20260505174729 25 176 0.0 3.2 0.00 0.00 0.00 45 1013.8
20260505174226 25 177 0.0 3.2 0.00 0.00 0.00 46 1014.1
20260505173722 25 192 1.6 8.0 0.00 0.00 0.00 45 1014.1
20260505173219 25 217 0.0 0.0 0.00 0.00 0.00 45 1014.1
20260505172716 25 126 0.0 0.0 0.00 0.00 0.00 45 1014.4
20260505172213 25 210 0.0 0.0 0.00 0.00 0.00 46 1014.4
20260505171713 25 98 0.0 0.0 0.00 0.00 0.00 45 1014.4
20260505171210 24 150 0.0 0.0 0.00 0.00 0.00 46 1015.1
20260505170707 24 253 0.0 8.0 0.00 0.00 0.00 46 1014.8
20260505170204 25 159 0.0 0.0 0.00 0.00 0.00 46 1014.8
20260505165704 25 292 0.0 8.0 0.00 0.00 0.00 46 1015.1
20260505165200 23 280 1.6 3.2 0.00 0.00 0.00 47 1014.8
20260505164655 23 131 0.0 12.9 0.00 0.00 0.00 47 1015.1
20260505164153 23 114 0.0 0.0 0.00 0.00 0.00 46 1015.1
20260505163651 23 228 0.0 0.0 0.00 0.00 0.00 46 1015.1
20260505163149 24 143 0.0 0.0 0.00 0.00 0.00 55 1015.1
20260505162646 22 239 0.0 0.0 0.00 0.00 0.00 53 1015.5
20260505162144 23 201 0.0 0.0 0.00 0.00 0.00 53 1015.1
20260505161640 22 270 0.0 3.2 0.00 0.00 0.00 54 1014.8
20260505161138 22 237 0.0 0.0 0.00 0.00 0.00 55 1015.1
20260505160636 22 249 0.0 8.0 0.00 0.00 0.00 55 1015.1
20260505160133 21 205 0.0 0.0 0.00 0.00 0.00 56 1015.1
20260505153112 21 233 0.0 0.0 0.00 0.00 0.00 58 1015.5
20260505152609 21 163 0.0 3.2 0.00 0.00 0.00 57 1015.5
20260505152104 21 127 0.0 0.0 0.00 0.00 0.00 57 1015.5
20260505151600 21 198 0.0 3.2 0.00 0.00 0.00 58 1015.5
20260505151058 21 275 0.0 0.0 0.00 0.00 0.00 58 1015.5
20260505150554 21 163 0.0 0.0 0.00 0.00 0.00 59 1015.5
20260505140519 17 156 0.0 0.0 0.00 0.00 0.00 62 1015.5
20260505124932 15 234 0.0 0.0 0.00 0.00 0.00 70 1015.5
20260505124429 15 234 0.0 0.0 0.00 0.00 0.00 71 1015.5
20260505123925 15 234 0.0 0.0 0.00 0.00 0.00 71 1015.5
20260505123422 15 235 0.0 0.0 0.00 0.00 0.00 71 1015.1
20260505122918 15 240 0.0 0.0 0.00 0.00 0.00 72 1015.1
20260505122415 14 248 0.0 0.0 0.00 0.00 0.00 72 1015.1
20260505121912 13 228 0.0 0.0 0.00 0.00 0.00 74 1014.8
20260505121409 13 228 0.0 0.0 0.00 0.00 0.00 75 1014.8
20260505120905 13 248 0.0 0.0 0.00 0.00 0.00 75 1014.8
20260505120402 13 239 0.0 0.0 0.00 0.00 0.00 76 1014.8
20260505115900 12 228 0.0 0.0 0.00 0.00 0.00 75 1014.8
20260505115357 12 228 0.0 0.0 0.00 0.00 0.00 76 1014.8
20260505114855 11 228 0.0 0.0 0.00 0.00 0.00 77 1014.8
20260505114351 11 240 0.0 0.0 0.00 0.00 0.00 78 1014.4
20260505113848 11 219 0.0 0.0 0.00 0.00 0.00 79 1014.4
20260505113344 11 236 0.0 0.0 0.00 0.00 0.00 80 1014.4
20260505112840 10 234 0.0 0.0 0.00 0.00 0.00 80 1014.4
20260505112338 10 227 0.0 0.0 0.00 0.00 0.00 80 1014.4
20260505111833 10 226 0.0 0.0 0.00 0.00 0.00 80 1014.4
20260505111329 10 230 0.0 0.0 0.00 0.00 0.00 79 1014.4
20260505110825 10 226 0.0 0.0 0.00 0.00 0.00 79 1014.4
20260505110323 10 227 0.0 0.0 0.00 0.00 0.00 79 1014.4
20260505101757 10 266 0.0 0.0 0.00 0.00 0.00 79 1013.8
20260505101253 10 220 0.0 0.0 0.00 0.00 0.00 79 1013.8
20260505100749 10 218 0.0 0.0 0.00 0.00 0.00 78 1013.8
20260505100246 10 250 0.0 0.0 0.00 0.00 0.00 78
20260505095741 10 230 0.0 0.0 0.00 0.00 0.00 79
20260505095240 10 190 0.0 0.0 0.00 0.00 0.00 79 1013.4
20260505094735 10 255 0.0 0.0 0.00 0.00 0.00 79 1013.4
20260505094232 10 213 0.0 0.0 0.00 0.00 0.00 79 1013.8
20260505093728 10 203 0.0 0.0 0.00 0.00 0.00 79 1013.8
20260505093225 10 67 0.0 0.0 0.00 0.00 0.00 79 1013.4
20260505092722 10 207 0.0 0.0 0.00 0.00 0.00 79 1013.8
20260505092221 10 216 0.0 0.0 0.00 0.00 0.00 79 1013.4
20260505091717 10 221 0.0 0.0 0.00 0.00 0.00 78 1013.8
20260505091216 10 220 0.0 0.0 0.00 0.00 0.00 78 1013.8
20260505090713 10 214 0.0 0.0 0.00 0.00 0.00 78 1013.4
20260505090211 10 236 0.0 0.0 0.00 0.00 0.00 78 1013.8
20260505085708 10 213 0.0 0.0 0.00 0.00 0.00 78 1013.4
20260505085206 10 222 0.0 0.0 0.00 0.00 0.00 78 1013.0
20260505084703 10 236 0.0 0.0 0.00 0.00 0.00 78 1013.0
20260505084202 10 243 0.0 0.0 0.00 0.00 0.00 78 1013.4
20260505083659 10 230 0.0 0.0 0.00 0.00 0.00 78 1013.4
20260505083155 11 228 0.0 0.0 0.00 0.00 0.00 77 1013.8
20260505082651 11 220 0.0 0.0 0.00 0.00 0.00 77 1013.8
20260505082148 11 149 0.0 0.0 0.00 0.00 0.00 76 1013.8
20260505081644 11 183 0.0 0.0 0.00 0.00 0.00 77 1013.8
20260505081142 11 239 0.0 0.0 0.00 0.00 0.00 76 1013.8
20260505080639 11 234 0.0 0.0 0.00 0.00 0.00 77 1013.8
20260505080135 11 170 0.0 0.0 0.00 0.00 0.00 76 1013.8
20260505075631 11 256 0.0 0.0 0.00 0.00 0.00 77 1013.8
20260505075128 11 244 0.0 0.0 0.00 0.00 0.00 76 1013.8
20260505074625 11 225 0.0 0.0 0.00 0.00 0.00 76 1013.8
20260505074122 11 198 0.0 0.0 0.00 0.00 0.00 76 1013.8
20260505073620 11 237 0.0 0.0 0.00 0.00 0.00 76 1013.8
20260505073118 11 220 0.0 0.0 0.00 0.00 0.00 76 1013.8
20260505072613 12 222 0.0 0.0 0.00 0.00 0.00 75 1013.8
20260505072110 11 258 0.0 0.0 0.00 0.00 0.00 76 1013.8
20260505071605 12 200 0.0 0.0 0.00 0.00 0.00 75 1013.8
20260505071103 12 224 0.0 0.0 0.00 0.00 0.00 75 1013.8
20260505070600 12 220 0.0 0.0 0.00 0.00 0.00 75 1013.8
20260505070056 12 219 0.0 0.0 0.00 0.00 0.00 75 1013.8
20260505065552 12 244 0.0 0.0 0.00 0.00 0.00 74 1013.8
20260505065049 12 222 0.0 0.0 0.00 0.00 0.00 74 1013.8
20260505064546 12 215 0.0 0.0 0.00 0.00 0.00 74 1013.8
20260505064045 12 246 0.0 0.0 0.00 0.00 0.00 74 1013.8
20260505063542 12 225 0.0 0.0 0.00 0.00 0.00 74 1013.8
20260505063037 12 265 0.0 0.0 0.00 0.00 0.00 74 1013.8
20260505062534 12 249 0.0 0.0 0.00 0.00 0.00 74 1013.8
20260505062031 12 228 0.0 0.0 0.00 0.00 0.00 74 1014.1
20260505061529 13 237 0.0 0.0 0.00 0.00 0.00 74 1013.8
20260505061027 13 232 0.0 0.0 0.00 0.00 0.00 74 1014.1
20260505060524 13 228 0.0 0.0 0.00 0.00 0.00 74 1013.8
20260505060021 13 239 0.0 0.0 0.00 0.00 0.00 74 1013.8
20260505055516 13 260 0.0 0.0 0.00 0.00 0.00 74 1014.1
20260505055013 13 228 0.0 0.0 0.00 0.00 0.00 74 1013.8
20260505054510 13 251 0.0 0.0 0.00 0.00 0.00 74 1013.8
20260505054008 13 217 0.0 0.0 0.00 0.00 0.00 74 1013.8
20260505053505 13 215 0.0 0.0 0.00 0.00 0.00 74 1013.8
20260505053001 13 244 0.0 0.0 0.00 0.00 0.00 73 1013.8
20260505052459 13 257 0.0 0.0 0.00 0.00 0.00 73 1014.1
20260505051956 13 247 0.0 0.0 0.00 0.00 0.00 72 1013.8
20260505051452 13 282 0.0 0.0 0.00 0.00 0.00 73 1013.8
20260505050951 13 239 0.0 0.0 0.00 0.00 0.00 73 1013.8
20260505050449 13 226 0.0 0.0 0.00 0.00 0.00 73 1013.8